Alicante, Spain

10:55 AM CET on February 24, 2017 (GMT +0100)
Alicante

Weather History for LEAL - March, 2014

Change the Weather History Date:

Sunday, March 2, 2014

  Actual Average Record
Temperature  
Mean Temperature 68 °F -  
Max Temperature 74 °F 64 °F 82 °F (2015)
Min Temperature 62 °F 46 °F 32 °F (2004)
Cooling Degree Days 3    
Growing Degree Days 18 (Base 50)    
Moisture  
Dew Point 46 °F    
Average Humidity 43    
Maximum Humidity 59    
Minimum Humidity 23    
Precipitation  
Precipitation 0.00 in - - ()
Sea Level Pressure  
Sea Level Pressure 29.67 in    
Wind  
Wind Speed 15 mph ()    
Max Wind Speed 26 mph    
Max Gust Speed 38 mph    
Visibility 6.7 miles    
Events      
Averages and records for this station are not official NWS values.
T = Trace of Precipitation, MM = Missing Value Source: Averaged Metar Reports

Daily Weather History Graph

Daily Weather History Graph

Search for Another Location

Airport or City:

Trip Planner

Search our weather history database for the weather conditions in past years. The results will help you decide how hot, cold, wet, or windy it might be!

Date:

Astronomy

Mar. 02, 2014 Rise Set
Actual Time 7:33 AM CET 6:56 PM CET
Civil Twilight 7:06 AM CET 7:22 PM CET
Nautical Twilight 6:35 AM CET 7:53 PM CET
Astronomical Twilight 6:05 AM CET 8:24 PM CET
Moon 7:56 AM CET (3/2) 8:33 PM CET (3/2)
Length of Visible Light 12h 16m
Length of Day
11h 23m
New Moon, 2% of the Moon is Illuminated
Mar 2
New Moon
Mar 8
First Quarter
Mar 16
Full
Mar 24
Last Quarter
Mar 30
New

Hourly Weather History & Observations

Time (CET) Temp. Dew Point Humidity Pressure Visibility Wind Dir Wind Speed Gust Speed Precip Events Conditions
12:00 AM 65 °F 47 °F 42% 29.56 in - West 13.8 mph - -  
12:00 AM 64.4 °F 48.2 °F 56% 29.56 in 6.2 mi West 10.4 mph - N/A   Partly Cloudy
12:30 AM 66.2 °F 48.2 °F 52% 29.56 in 6.2 mi WSW 12.7 mph - N/A   Partly Cloudy
1:00 AM 65 °F 48 °F 43% 29.55 in 12 mi SW 9.2 mph - -   Scattered Clouds
1:00 AM 64.4 °F 48.2 °F 56% 29.53 in 6.2 mi SW 8.1 mph - N/A   Partly Cloudy
1:30 AM 66.2 °F 48.2 °F 52% 29.53 in 6.2 mi SW 6.9 mph - N/A   Partly Cloudy
2:00 AM 67 °F 48 °F 39% 29.56 in - WNW 12.7 mph - -  
2:00 AM 66.2 °F 48.2 °F 52% 29.56 in 6.2 mi WNW 9.2 mph 24.2 mph N/A   Partly Cloudy
2:30 AM 66.2 °F 50.0 °F 56% 29.56 in 6.2 mi WNW 19.6 mph 33.4 mph N/A   Partly Cloudy
3:00 AM 65 °F 49 °F 47% 29.57 in - WNW 17.3 mph - -  
3:00 AM 64.4 °F 50.0 °F 59% 29.56 in 6.2 mi WNW 16.1 mph 27.6 mph N/A   Partly Cloudy
3:30 AM 64.4 °F 50.0 °F 59% 29.56 in 6.2 mi West 11.5 mph - N/A   Partly Cloudy
4:00 AM 64 °F 48 °F 46% 29.56 in 12 mi WNW 15.0 mph - -   Scattered Clouds
4:00 AM 64.4 °F 48.2 °F 56% 29.56 in 6.2 mi WNW 13.8 mph - N/A   Partly Cloudy
4:30 AM 64.4 °F 48.2 °F 56% 29.56 in 6.2 mi WNW 17.3 mph - N/A   Partly Cloudy
5:00 AM 64 °F 48 °F 45% 29.57 in - WNW 16.1 mph - -  
5:00 AM 64.4 °F 48.2 °F 56% 29.56 in 6.2 mi WNW 13.8 mph 27.6 mph N/A   Partly Cloudy
5:30 AM 64.4 °F 48.2 °F 56% 29.56 in 6.2 mi WNW 18.4 mph - N/A   Partly Cloudy
6:00 AM 64 °F 47 °F 44% 29.59 in - WNW 24.2 mph - -  
6:00 AM 64.4 °F 48.2 °F 56% 29.59 in 6.2 mi WNW 23.0 mph 35.7 mph N/A   Partly Cloudy
6:30 AM 64.4 °F 48.2 °F 56% 29.59 in 6.2 mi WNW 20.7 mph - N/A   Partly Cloudy
7:00 AM 63 °F 47 °F 45% 29.63 in 19 mi WNW 21.9 mph - -   Scattered Clouds
7:00 AM 62.6 °F 48.2 °F 59% 29.62 in 6.2 mi WNW 20.7 mph - N/A   Partly Cloudy
7:30 AM 62.6 °F 46.4 °F 55% 29.62 in 6.2 mi WNW 21.9 mph 33.4 mph N/A   Partly Cloudy
8:00 AM 64 °F 47 °F 44% 29.66 in - WNW 23.0 mph - -  
8:00 AM 62.6 °F 48.2 °F 59% 29.65 in 6.2 mi WNW 21.9 mph - N/A   Partly Cloudy
8:30 AM 64.4 °F 48.2 °F 56% 29.65 in 6.2 mi WNW 24.2 mph 36.8 mph N/A   Partly Cloudy
9:00 AM 65 °F 47 °F 42% 29.70 in - WNW 24.2 mph - -  
9:00 AM 64.4 °F 48.2 °F 56% 29.68 in 6.2 mi WNW 24.2 mph - N/A   Partly Cloudy
9:30 AM 66.2 °F 48.2 °F 52% 29.71 in 6.2 mi WNW 17.3 mph - N/A   Partly Cloudy
10:00 AM 68 °F 47 °F 36% 29.73 in 25 mi WNW 18.4 mph - -   Scattered Clouds
10:00 AM 68.0 °F 48.2 °F 49% 29.71 in 6.2 mi WNW 18.4 mph 31.1 mph N/A   Partly Cloudy
10:30 AM 68.0 °F 46.4 °F 46% 29.74 in 6.2 mi WNW 18.4 mph - N/A   Partly Cloudy
11:00 AM 70 °F 47 °F 32% 29.73 in - WNW 20.7 mph - -  
11:00 AM 69.8 °F 46.4 °F 43% 29.71 in 6.2 mi WNW 20.7 mph - N/A   Partly Cloudy
11:30 AM 69.8 °F 46.4 °F 43% 29.71 in 6.2 mi WNW 26.5 mph 38.0 mph N/A   Partly Cloudy
12:00 PM 69 °F 46 °F 32% 29.76 in - WNW 15.0 mph - -  
12:00 PM 69.8 °F 46.4 °F 43% 29.74 in 6.2 mi WNW 15.0 mph - N/A   Partly Cloudy
12:30 PM 71.6 °F 44.6 °F 38% 29.74 in 6.2 mi WNW 20.7 mph 32.2 mph N/A   Partly Cloudy
1:00 PM 73 °F 45 °F 26% 29.75 in 25 mi WNW 20.7 mph - -   Scattered Clouds
1:00 PM 73.4 °F 46.4 °F 38% 29.74 in 6.2 mi WNW 19.6 mph - N/A   Partly Cloudy
1:30 PM 71.6 °F 44.6 °F 38% 29.74 in 6.2 mi WNW 23.0 mph - N/A   Partly Cloudy
2:00 PM 73 °F 45 °F 26% 29.73 in - WNW 18.4 mph - -  
2:00 PM 73.4 °F 46.4 °F 38% 29.74 in 6.2 mi WNW 18.4 mph 31.1 mph N/A   Partly Cloudy
2:30 PM 73.4 °F 46.4 °F 38% 29.71 in 6.2 mi WNW 16.1 mph - N/A   Partly Cloudy
3:00 PM 74 °F 44 °F 24% 29.72 in - West 17.3 mph - -  
3:00 PM 73.4 °F 44.6 °F 36% 29.71 in 6.2 mi WNW 16.1 mph - N/A   Partly Cloudy
3:30 PM 73.4 °F 42.8 °F 33% 29.71 in 6.2 mi West 17.3 mph - N/A   Partly Cloudy
4:00 PM 73 °F 43 °F 23% 29.71 in 25 mi West 17.3 mph - -   Partly Cloudy
4:00 PM 73.4 °F 42.8 °F 33% 29.71 in 6.2 mi West 16.1 mph - N/A   Scattered Clouds
4:30 PM 73.4 °F 44.6 °F 36% 29.71 in 6.2 mi West 16.1 mph - N/A   Scattered Clouds
5:00 PM 73 °F 43 °F 23% 29.71 in - West 18.4 mph - -  
5:00 PM 73.4 °F 42.8 °F 33% 29.71 in 6.2 mi West 18.4 mph - N/A   Scattered Clouds
5:30 PM 73.4 °F 42.8 °F 33% 29.68 in 6.2 mi West 17.3 mph - N/A   Partly Cloudy
6:00 PM 71 °F 42 °F 24% 29.70 in - West 18.4 mph - -  
6:00 PM 71.6 °F 42.8 °F 35% 29.71 in 6.2 mi West 18.4 mph - N/A   Partly Cloudy
6:30 PM 69.8 °F 42.8 °F 38% 29.71 in 6.2 mi WNW 20.7 mph - N/A   Partly Cloudy
7:00 PM 69 °F 43 °F 28% 29.71 in 25 mi WNW 18.4 mph - -   Scattered Clouds
7:00 PM 69.8 °F 42.8 °F 38% 29.71 in 6.2 mi WNW 17.3 mph - N/A   Partly Cloudy
7:30 PM 68.0 °F 42.8 °F 40% 29.71 in 6.2 mi West 13.8 mph - N/A   Partly Cloudy
8:00 PM 68 °F 43 °F 29% 29.72 in - West 10.4 mph - -  
8:00 PM 68.0 °F 42.8 °F 40% 29.71 in 6.2 mi West 10.4 mph - N/A   Partly Cloudy
8:30 PM 68.0 °F 44.6 °F 43% 29.71 in 6.2 mi WSW 10.4 mph - N/A   Partly Cloudy
9:00 PM 67 °F 44 °F 32% 29.73 in - West 12.7 mph - -  
9:00 PM 68.0 °F 44.6 °F 43% 29.71 in 6.2 mi West 12.7 mph - N/A   Partly Cloudy
9:30 PM 68.0 °F 44.6 °F 43% 29.71 in 6.2 mi West 13.8 mph - N/A   Partly Cloudy
10:00 PM 67 °F 46 °F 35% 29.73 in 9 mi WSW 16.1 mph - -   Scattered Clouds
10:00 PM 66.2 °F 46.4 °F 49% 29.71 in 6.2 mi WSW 15.0 mph - N/A   Partly Cloudy
10:30 PM 66.2 °F 46.4 °F 49% 29.71 in 6.2 mi WSW 15.0 mph - N/A   Partly Cloudy
11:00 PM 67 °F 47 °F 38% 29.73 in - WSW 15.0 mph - -  
11:00 PM 66.2 °F 46.4 °F 49% 29.71 in 6.2 mi WSW 15.0 mph - N/A   Partly Cloudy
11:30 PM 66.2 °F 48.2 °F 52% 29.74 in 6.2 mi West 15.0 mph - N/A   Partly Cloudy